FW5819 Weather Reports


Display with metric or nautical units.
time (UTC)temp
F
wind
direction
speed
MPH
gust
MPH
rain 1hr
in
rain 24hr
in
rain mn
in
humidity
%
barometer
mb
20260503031534 41 0 0.0 2.0 0.00 0.15 0.15 77 1017.1
20260503030035 41 139 0.0 3.0 0.00 0.15 0.15 77 1017.1
20260503024536 42 217 0.0 2.0 0.00 0.20 0.15 77 1017.2
20260503023034 42 184 0.0 3.0 0.00 0.20 0.15 76 1017.3
20260503021547 42 138 0.0 2.0 0.00 0.20 0.15 76 1017.2
20260503020046 42 173 0.0 2.0 0.00 0.20 0.15 75 1017.3
20260503014535 42 0 0.0 2.0 0.00 0.21 0.15 75 1017.1
20260503013035 42 0 0.0 0.0 0.00 0.21 0.15 75 1017.2
20260503011532 42 0 0.0 1.0 0.00 0.21 0.15 73 1017.0
20260503010032 42 0 0.0 0.0 0.00 0.21 0.15 72 1017.0
20260503004536 42 0 0.0 0.0 0.00 0.21 0.15 70 1016.9
20260503003049 43 250 0.0 1.0 0.00 0.21 0.15 66 1016.8
20260503001538 44 267 0.0 1.0 0.00 0.21 0.15 62 1016.8
20260503000035 44 0 0.0 2.0 0.00 0.21 0.15 61 1016.7
20260502234534 45 0 1.0 3.0 0.00 0.21 0.15 60 1016.8
20260502233035 45 291 0.0 6.0 0.00 0.21 0.15 62 1016.8
20260502231533 45 329 2.0 6.0 0.00 0.21 0.15 59 1016.7
20260502230036 45 35 2.0 7.0 0.00 0.21 0.15 61 1016.9
20260502224537 45 328 1.0 4.0 0.00 0.21 0.15 64 1016.9
20260502223034 45 12 1.0 3.0 0.00 0.21 0.15 65 1016.8
20260502221531 45 306 3.0 6.0 0.00 0.21 0.15 64 1017.0
20260502220036 45 286 1.0 7.0 0.00 0.21 0.15 62 1017.0
20260502214537 46 309 1.0 3.0 0.00 0.21 0.15 62 1017.0
20260502213051 48 17 1.0 10.0 0.00 0.21 0.15 60 1016.9
20260502211537 47 34 3.0 9.0 0.00 0.21 0.15 65 1016.8
20260502210037 46 298 3.0 12.0 0.00 0.21 0.15 65 1016.8
20260502204542 45 77 2.0 11.0 0.00 0.21 0.15 66 1016.9
20260502203041 45 46 5.0 9.0 0.00 0.21 0.15 66 1017.0
20260502201535 45 305 5.0 13.0 0.00 0.21 0.15 66 1017.0
20260502200054 46 345 5.0 11.0 0.00 0.21 0.15 67 1017.2
20260502194534 45 25 4.0 10.0 0.00 0.21 0.15 64 1017.2
20260502193039 45 296 4.0 10.0 0.00 0.21 0.15 67 1017.4
20260502191532 46 27 6.0 12.0 0.00 0.21 0.15 62 1017.5
20260502190037 46 338 4.0 10.0 0.00 0.21 0.15 65 1017.6
20260502184535 46 294 2.0 8.0 0.00 0.23 0.15 64 1017.7
20260502183044 45 297 2.0 7.0 0.00 0.23 0.15 63 1017.8
20260502181534 45 16 3.0 8.0 0.00 0.23 0.15 64 1017.8
20260502163036 44 349 1.0 6.0 0.00 0.31 0.15 72 1018.2
20260502161537 44 17 2.0 6.0 0.00 0.31 0.15 75 1018.3
20260502151537 42 267 2.0 6.0 0.00 0.38 0.15 80 1018.1
20260502123036 36 337 0.0 2.0 0.02 0.45 0.14 92 1017.6
20260502121535 36 71 1.0 6.0 0.02 0.45 0.14 92 1017.5
20260502114538 36 41 1.0 5.0 0.03 0.47 0.13 92 1017.2
20260502113049 36 9 1.0 3.0 0.04 0.46 0.12 92 1017.1
20260502111537 36 31 1.0 3.0 0.07 0.46 0.12 92 1017.0
20260502110035 36 0 0.0 9.0 0.07 0.45 0.11 92 1016.8
20260502104535 35 67 1.0 6.0 0.07 0.49 0.10 92 1016.7
20260502103057 35 65 1.0 6.0 0.05 0.47 0.08 92 1016.5
20260502101548 36 346 3.0 10.0 0.02 0.44 0.05 92 1016.2
20260502071536 37 136 0.0 1.0 0.00 0.47 0.03 92 1015.7
20260502070035 38 0 0.0 1.0 0.00 0.47 0.03 92 1015.8
20260502064537 38 0 0.0 1.0 0.00 0.47 0.03 92 1015.9
20260502063044 38 0 0.0 2.0 0.00 0.47 0.03 91 1015.8
20260502061536 38 0 0.0 4.0 0.00 0.47 0.03 91 1015.9
20260502060034 38 84 0.0 2.0 0.00 0.47 0.03 91 1016.2
20260502054550 39 158 0.0 6.0 0.01 0.47 0.03 91 1016.4
20260502053037 39 95 1.0 4.0 0.03 0.47 0.03 91 1016.3
20260502051535 39 132 0.0 2.0 0.03 0.47 0.03 91 1016.4
20260502050035 39 0 0.0 1.0 0.03 0.47 0.03 91 1016.6
20260502044536 39 0 0.0 1.0 0.02 0.46 0.02 91 1016.6
20260502043032 39 0 0.0 1.0 0.00 0.44 0.00 91 1016.6
20260502041534 39 0 0.0 2.0 0.00 0.44 0.00 91 1016.4
20260502040034 40 0 0.0 3.0 0.00 0.44 0.00 90 1016.5
20260502034536 40 0 0.0 1.0 0.00 0.44 0.44 90 1016.3
20260502033041 39 0 0.0 0.0 0.01 0.44 0.44 90 1016.4